This is the latest recevied weather packets stored in our database for station/object DK9HI-WX. If no packets are shown the sender has not sent any weather packets the latest 10 day(s).
| Time | Temp. | Humidity | Pressure | Rain* | Wind** | Luminosity | Snow |
|---|---|---|---|---|---|---|---|
| 1777770788 | 17.78° C | 64% | 1014.5 hPa | - | - | - | - |
| 1777770188 | 17.78° C | 64% | 1014.4 hPa | - | - | - | - |
| 1777769588 | 17.78° C | 64% | 1014.6 hPa | - | - | - | - |
| 1777768988 | 18.33° C | 64% | 1014.8 hPa | - | - | - | - |
| 1777768388 | 18.33° C | 65% | 1014.9 hPa | - | - | - | - |
| 1777767788 | 18.33° C | 66% | 1015.1 hPa | - | - | - | - |
| 1777767187 | 18.33° C | 68% | 1015.2 hPa | - | - | - | - |
| 1777766587 | 18.33° C | 69% | 1015.4 hPa | - | - | - | - |
| 1777765988 | 18.33° C | 69% | 1015.6 hPa | - | - | - | - |
| 1777765387 | 18.89° C | 66% | 1015.7 hPa | - | - | - | - |
| 1777764787 | 18.33° C | 66% | 1015.5 hPa | - | - | - | - |
| 1777764187 | 18.33° C | 64% | 1015.5 hPa | - | - | - | - |
| 1777763587 | 17.78° C | 65% | 1015.5 hPa | - | - | - | - |
| 1777762987 | 17.22° C | 69% | 1015.8 hPa | - | - | - | - |
| 1777762387 | 16.67° C | 70% | 1015.1 hPa | - | - | - | - |
| 1777761787 | 17.22° C | 69% | 1015.1 hPa | - | - | - | - |
| 1777761187 | 17.22° C | 68% | 1015 hPa | - | - | - | - |
| 1777760587 | 17.22° C | 68% | 1015.1 hPa | - | - | - | - |
| 1777759987 | 17.78° C | 67% | 1015.1 hPa | - | - | - | - |
| 1777759387 | 17.78° C | 66% | 1015.2 hPa | - | - | - | - |
| 1777758787 | 18.33° C | 64% | 1015.2 hPa | - | - | - | - |
| 1777758187 | 18.33° C | 66% | 1015.2 hPa | - | - | - | - |
| 1777757587 | 18.33° C | 65% | 1015.3 hPa | - | - | - | - |
| 1777756987 | 18.89° C | 63% | 1015.5 hPa | - | - | - | - |
| 1777756387 | 18.89° C | 62% | 1015.4 hPa | - | - | - | - |
* Rain since midnight (hover to see other rain measurements)
** Current wind speed in m/s (hover to see current wind gust speed)